星链-31909 (STARLINK-31909 )

导读 | 星芒AI

STARLINK-31909 是 SpaceX Starlink 卫星互联网项目中的一颗低轨卫星。该卫星属于 Starlink 群体的一部分,旨在为全球用户提供高速互联网服务。它运行在近地轨道,具备先进的通信技术,支持宽带接入和低延迟通信。该卫星的发射有助于扩大 Starlink 在全球范围内的覆盖能力,特别是在偏远和网络基础设施薄弱的地区。作为 SpaceX 扩展其太空互联网计划的一部分,STARLINK-31909 与其他卫星协同工作,提升全球网络连接的稳定性和效率。

基本信息
目录编号:
59663
目录名称:
STARLINK-31909
国际标识:
2024-084K
轨道中心:
EARTH
卫星名称:
星链-31909
卫星全名:
星链-31909 (STARLINK-31909 )
卫星状态:
在轨 (已飞行546 天)
发射日期:
2024-05-06 UTC
国别 :
美国 (US)
星等 :
--
轨道信息
数据来源 国际轨道数据
星历时间: 2025-11-02T07:05:47+0800
1天前
查看轨道信息
半长轴: 6861.197km
偏心率: 0.000121
轨道倾角: 43.000°
近地点辐角 255.686°
升交点赤经 42.771°
平近点角 104.386°
近地点: 482.231km
远地点: 483.893km
周期: 94.267分钟
每日圈数: 15.275764
详细信息
固有亮度:
5
最大亮度:
1.5
卫星平台:
Starlink v2.0 mini
覆盖范围:
全球
运营商:
太空探索技术公司
运营商所在国:
美国
制造商(研发单位):
太空探索技术公司
制造商所在国:
美国
使用方式:
暂无
卫星简介
星链(Starlink)计划是由太空探索技术公司(SpaceX)提出的一个巨型低轨卫星互联网星座项目,计划在2019年至2024年间在太空搭建由约1.2万颗卫星组成的“星链”网络,其中1584颗将部署在地球上空550千米处的近地轨道,并从2020年开始工作。该卫星仍在工作。
2D轨道图
3D轨道图
轨道高度分析图
轨道倾角分析图
轨道综合分析图
查看轨道综合分析图